Flag Weather past 2 weeks in Tarlac City, Philippines

Now
84 °F

Scattered clouds.


Feels Like: 90 °F
Forecast: 76 / 85 °F
Wind: 3 mph from Northeast

Location: Clarkfield Pampanga International Airport

Current Time: Nov 29, 2014 at 1:14:22 PM

Latest Report: Nov 29, 2014 at 12:00 PM


Visibility: N/A

Pressure: 29.89 "Hg

Humidity: 66%

Dew point: 72 °F

Location of Tarlac CityLocation

Historic Weather in Tarlac City — Graph

°F

Tarlac City temperature yesterday

Maximum temperature yesterday: 86 °F (at 11:00 AM)
Minimum temperature yesterday: 75 °F (at 12:00 AM)
Average temperature yesterday: 80 °F

Past Weeks' High & Low Weather Summary

 TemperatureHumidityPressure
High91 °F (Nov 18, 3:00 PM)100% (Nov 15, 10:00 AM)29.98 "Hg (Nov 15, 10:00 AM)
Low73 °F (Nov 15, 10:00 AM)40% (Nov 14, 12:00 PM)29.77 "Hg (Nov 17, 3:00 PM)
Average81 °F77%29.88 "Hg
* Reported Nov 14 12:00 Noon — Nov 29 12:00 Noon, Tarlac City, Weather by CustomWeather, © 2014

Note: Actual official high and low records may vary slightly from our data, if they occured in-between our weather recording intervals... More about our weather records

Advertising

Tarlac City weather history for previous 24 hours

 ConditionsComfort  
Time TempWeatherWind HumidityBarometerVisibility
12:00 PM
Nov 29
86 °FScattered clouds.3 mph62%29.89 "HgN/A
11:00 AM84 °FBroken clouds.6 mph66%29.92 "HgN/A
10:00 AM84 °FPartly sunny.7 mph70%29.95 "HgN/A
9:00 AM82 °FPartly sunny.7 mph79%29.95 "HgN/A
8:00 AM81 °FBroken clouds.7 mph84%29.95 "HgN/A
7:00 AM77 °FBroken clouds.2 mph94%29.92 "HgN/A
6:00 AM77 °FPartly cloudy.6 mph89%29.89 "HgN/A
5:00 AM79 °FPassing clouds.6 mph79%29.89 "HgN/A
4:00 AM77 °FPassing clouds.7 mph89%29.86 "HgN/A
3:00 AM77 °FPassing clouds.7 mph89%29.86 "HgN/A
2:00 AM79 °FPassing clouds.1 mph84%29.89 "HgN/A
1:00 AM77 °FPassing clouds.2 mph89%29.89 "HgN/A
12:00 AM79 °FPassing clouds.6 mph84%29.92 "HgN/A
11:00 PM
Nov 28
79 °FPassing clouds.6 mph84%29.95 "HgN/A
10:00 PM79 °FPassing clouds.6 mph84%29.95 "HgN/A
9:00 PM81 °FPassing clouds.2 mph79%29.95 "HgN/A
8:00 PM81 °FPassing clouds.2 mph79%29.92 "HgN/A
7:00 PM81 °FPartly cloudy.2 mph74%29.89 "HgN/A
6:00 PM79 °FPartly cloudy.5 mph84%29.89 "HgN/A
5:00 PM84 °FBroken clouds.8 mph70%29.86 "HgN/A
4:00 PM86 °FBroken clouds.7 mph62%29.83 "HgN/A
3:00 PM86 °FBroken clouds.10 mph55%29.83 "HgN/A
2:00 PM86 °FBroken clouds.12 mph59%29.86 "HgN/A
1:00 PM86 °FBroken clouds.12 mph66%29.86 "HgN/A
Weather by CustomWeather, © 2014

See weather overviewHow to use our weather pages